STARLINK-4442, 53480

Orbit data source: Space-Track

STARLINK-4442, 53480 is a payload satellite owned by SpaceX/Seattle (US) in SSO that was launched on Fri, 12 Aug 2022 UTC via an FALCON 9 launch vehicle from the Air Force Western Test Range (AFWTR). Payload-class satellites include a variety of spacecraft equipped with specific instruments for various scientific and technological missions. These include communications satellites like Starlink; space stations such as the ISS; scientific satellites like the Hubble; Earth observation satellites from companies like Planet Labs, Umbra, and HawkEye 360; GPS; miniature CubeSats for education and research; and military/defense satellites.

Loading next visibility...
Identifier
53480, 2022-099R
Orbit
SSO
Country
Flag of USUS
Related business
Manufacturer
SpaceX/Seattle
Mission
Operational Commercial Communications
Bus & Motor
STARLINK, Unknown motor
Mass
300 kg wet, ~275 kg dry
Launch date (UTC)
2022-08-12 (3 years ago)
Launch vehicle
FALCON 9
Launch site
Air Force Western Test Range (AFWTR)
Object type
Payload
Rocket body
Debris
Shape & HBR
Box + 1 Pan, 10.1 m
Radar Cross Section
13.562 m², Large (>1 m²)

Expand to show TLE details & history
Last TLE update: 16 hours ago

TLE from 16 hours ago
0 STARLINK-4442
1 53480U 22099R   25293.31676706 -.00000797  00000-0 -52197-4 0  9992
2 53480  97.6028  52.8404 0001260  88.6253 271.5117 15.04828349174929
Epoch: 2025-10-20T07:36Z
TLE epoch observation values (Epoch: 2025-10-20T07:36:08.673Z)
Latitude
-0.00006°
Longitude
-90.21655°
Altitude
555.074 km
Speed
7.584 km/s
True Right ascension
03h 31m 21s
True Declination
0° 00' 00"
Sunlit
Object was in full shadow at epoch
Visualization orbit readout
Latitude
Unknown
Longitude
Unknown
Altitude
Unknown
Speed
Unknown
Apparent Right ascension
Unknown
Apparent Declination
Unknown
Sunlit
N/A
Visualization observer readout
Local Sidereal Time
18:15:05
Azimuth
Unknown
Elevation
Unknown
Doppler factor
Unknown
Orbital elements
Apogee altitude
549.9 km
Perigee altitude
548.154 km
Semi-major axis
6,927.164 km
Eccentricity
0.00013
Inclination
97.6028°
RAAN
52.8404°
Arg. of periapsis
88.6253°
True anomaly
271.49727°
Mean anomaly
271.5117°
Eccentric anomaly
271.50448°
Mean motion
3.76452 °/min
Orbital period
95.63 mins
BSTAR
-0.000052197
Loading maneuver chart data...
Computing Atmospheric mass density...
Loading historical data...
Loading historical data...
Loading historical data...
Loading historical data...
Loading historical data...
Loading historical data...
Loading historical data...

Documentation

Showing up to 5 results
|